This demonstration page uses our WeatherBlox Daily Observations layout. Learn more.

Left ArrowRight Arrow

Hourly Observations for January 19, 2019

Temp ( °F °C ) Dew Point ( °F °C ) Humidity (%) Winds ( mph kmh ) Pressure ( in mb ) Visibility ( mi km ) Precip ( " mm )
12:51 am 00:51 Clear 41 5 22 -5.6 47 47 WNW 7 11 30.21 1023 10 16 N/A
1:51 am 01:51 Clear 40 4.4 21 -6.1 47 47 N N/A 30.23 1024 10 16 N/A
2:51 am 02:51 Clear 38 3.3 22 -5.6 52 52 ESE 5 7 30.24 1024 10 16 N/A
3:51 am 03:51 Clear 37 2.8 22 -5.6 54 54 SSW 3 6 30.26 1025 10 16 N/A
4:51 am 04:51 Clear 35 1.7 22 -5.6 59 59 ENE 3 6 30.27 1025 10 16 N/A
5:51 am 05:51 Clear 36 2.2 22 -5.6 57 57 N N/A 30.27 1025 10 16 N/A
6:51 am 06:51 Clear 35 1.7 22 -5.6 59 59 SE 5 7 30.30 1026 10 16 N/A
7:51 am 07:51 Sunny 37 2.8 23 -5 57 57 SSE 5 7 30.32 1027 10 16 N/A
8:51 am 08:51 Sunny 45 7.2 22 -5.6 40 40 SE 14 22 30.32 1027 10 16 N/A
9:51 am 09:51 Sunny 50 10 24 -4.4 36 36 SE 10 17 30.34 1027 10 16 N/A
10:51 am 10:51 Sunny 53 11.7 19 -7.2 26 26 SE 10 17 30.34 1027 10 16 N/A
11:51 am 11:51 Sunny 56 13.3 23 -5 28 28 SE 12 19 30.31 1027 10 16 N/A
12:51 pm 12:51 Sunny 58 14.4 20 -6.7 23 23 SE 10 17 30.29 1026 10 16 N/A
1:51 pm 13:51 Sunny 60 15.6 19 -7.2 20 20 S 5 7 30.24 1024 10 16 N/A
2:51 pm 14:51 Sunny 62 16.7 18 -7.8 18 18 SSE 10 17 30.23 1024 10 16 N/A
3:51 pm 15:51 Sunny 62 16.7 18 -7.8 18 18 VRB 6 9 30.21 1023 10 16 N/A
4:51 pm 16:51 Sunny 61 16.1 16 -8.9 17 17 SSE 3 6 30.21 1023 10 16 N/A
5:51 pm 17:51 Clear 56 13.3 19 -7.2 24 24 N N/A 30.22 1023 10 16 N/A
6:51 pm 18:51 Clear 47 8.3 26 -3.3 44 44 N 6 9 30.24 1024 10 16 N/A
7:51 pm 19:51 Clear 46 7.8 25 -3.9 44 44 SE 6 9 30.24 1024 10 16 N/A
8:51 pm 20:51 Clear 45 7.2 24 -4.4 44 44 E 5 7 30.23 1024 10 16 N/A
9:51 pm 21:51 Clear 40 4.4 25 -3.9 55 55 E 6 9 30.24 1024 10 16 N/A
10:51 pm 22:51 Clear 40 4.4 24 -4.4 53 53 E 7 11 30.24 1024 10 16 N/A
11:51 pm 23:51 Clear 39 3.9 23 -5 53 53 N N/A 30.24 1024 10 16 N/A

Powered by AerisWeather